Temp
65 64 63 63 62 61 60 60 60 60 60 60 60 60 60 60 59 60 60 60 60 60 60 61 61 62 62 63 63 63 62 62 62 62 62 62 62 62 62 61 61 61 61 61 61 60 60 60 59 58 57 57 57 57 57 57 57 56 56 56 55 55 55 55 54 54 54 54 54
65 64 64 63 62 61 61 60 60 60 60 60 60 60 60 59 59 59 59 60 60 60 60 61 61 62 62 62 62 62 62 62 62 62 62 62 62 61 61 61 61 61 60 60 60 60 60 60 59 58 57 57 57 56 57 57 57 56 56 56 55 55 55 54 54 55 55 54 54
64 64 63 63 62 62 61 60 60 60 60 60 60 60 60 59 59 59 59 59 60 60 60 60 61 62 62 62 62 61 61 61 61 61 61 61 61 61 61 60 60 61 60 60 60 59 59 59 59 58 57 57 57 56 56 57 57 56 55 55 55 55 55 54 54 55 54 54 54
64 63 63 62 62 62 61 61 60 60 60 60 60 60 60 59 59 59 59 60 60 60 60 61 61 61 61 61 61 61 61 61 60 60 60 60 60 60 60 60 60 60 60 59 59 59 59 59 58 58 57 57 57 57 56 57 57 56 55 55 55 55 54 54 54 54 54 54 54
63 63 63 62 62 62 61 61 61 60 60 60 60 59 59 59 60 60 60 60 60 60 60 61 61 61 61 60 60 60 60 60 60 59 59 59 59 59 59 59 59 59 59 59 59 58 58 59 58 57 57 57 56 56 56 57 57 56 56 55 55 55 54 54 54 54 54 54 54
63 63 62 62 62 62 61 61 61 61 60 60 60 59 59 59 60 60 60 60 60 60 61 61 60 60 60 60 60 59 59 59 59 58 58 58 58 58 58 58 58 58 58 58 58 57 57 57 57 56 56 56 56 56 57 57 56 55 55 55 55 55 55 54 54 54 54 54 54
62 62 62 62 62 61 61 61 61 61 60 60 60 59 59 60 60 60 60 60 60 60 60 60 60 59 59 59 59 58 58 58 58 58 58 57 57 57 57 57 57 57 57 57 57 57 56 56 56 55 55 56 55 56 56 56 55 55 54 54 54 54 54 54 54 54 53 53 53
62 62 62 62 61 61 60 60 60 60 59 59 59 59 59 59 59 59 60 60 59 59 59 59 59 59 58 58 58 57 57 57 57 57 57 57 57 56 56 56 56 56 56 56 56 56 55 55 55 55 54 54 54 55 55 54 54 53 53 53 53 53 53 52 52 52 53 52 52
61 61 61 61 60 60 60 59 59 59 59 58 59 59 59 59 59 59 59 59 59 59 59 59 59 58 58 57 57 57 57 56 56 56 56 56 56 55 55 55 55 55 55 55 55 55 55 54 54 54 54 54 54 53 53 53 52 52 52 52 52 52 52 52 52 52 52 51 50
60 60 60 60 60 59 59 59 58 58 58 58 58 58 59 58 58 58 58 58 59 58 58 58 58 58 57 57 56 56 56 56 55 55 55 55 55 54 54 53 53 54 54 54 54 54 54 53 53 53 53 53 52 52 52 52 51 51 50 51 51 51 51 51 51 51 51 50 48
60 60 60 59 59 59 58 58 58 58 57 57 57 58 58 58 58 58 58 58 58 58 57 57 57 57 56 56 56 56 55 55 55 55 54 54 54 54 53 52 52 53 53 53 53 53 53 52 51 51 51 51 51 51 50 50 50 49 48 49 49 49 49 50 50 49 48 48 47
59 59 59 59 59 58 58 57 57 57 57 56 57 57 57 57 58 58 58 58 57 57 57 57 56 56 55 55 55 55 55 55 55 54 54 53 53 53 52 52 52 52 52 53 52 52 51 51 50 50 50 50 50 50 49 49 48 47 46 47 47 47 46 47 47 46 46 46 46
59 59 59 58 58 57 57 56 56 56 56 56 56 56 57 57 57 57 57 57 56 56 56 56 55 55 55 54 54 54 54 54 54 53 53 53 52 52 51 51 51 51 51 52 52 51 50 50 49 49 49 49 49 48 48 48 46 45 45 45 44 44 44 44 44 44 44 45 44
59 58 58 58 57 57 56 56 55 55 55 56 56 56 56 57 57 57 56 56 55 55 55 55 55 55 54 54 54 54 54 53 53 53 52 52 52 51 51 50 49 49 50 50 50 50 49 49 48 48 47 47 47 47 47 46 45 44 43 43 42 42 42 42 42 42 42 42 43
58 58 58 57 57 56 56 55 55 55 55 55 55 55 56 56 56 56 56 55 54 54 54 54 54 54 54 54 53 53 53 53 53 52 52 52 51 51 50 49 47 47 48 49 49 49 48 46 46 47 46 46 46 45 45 45 44 43 42 41 41 41 41 41 41 41 41 40 41
57 57 57 57 56 56 55 55 55 55 55 54 55 55 55 55 55 55 54 54 54 53 53 53 53 53 53 53 53 53 53 52 52 51 51 51 50 50 49 48 46 45 45 46 46 47 46 45 45 45 45 45 44 44 43 43 42 42 41 41 41 40 40 40 40 40 39 39 40
57 57 56 56 56 55 55 54 54 54 54 54 54 54 54 54 54 54 53 53 53 53 52 52 52 52 52 52 52 52 52 51 51 51 50 49 49 48 48 46 44 43 43 43 43 44 44 43 44 44 44 43 43 42 42 42 41 41 41 41 40 40 40 40 39 38 38 38 39
56 56 56 55 55 54 54 53 53 53 53 53 53 53 53 53 53 53 53 53 52 52 51 51 51 51 51 50 50 51 50 50 50 50 49 49 48 47 46 45 44 43 41 40 41 41 42 42 43 43 43 43 42 41 41 41 41 41 41 40 40 39 39 38 37 37 37 38 39
55 55 55 54 54 53 53 53 52 52 52 52 52 52 52 52 52 52 52 52 52 51 51 50 50 50 50 50 50 50 50 49 49 49 48 48 47 47 46 45 43 42 40 39 39 40 40 41 43 43 43 42 41 41 41 41 41 40 40 40 39 38 36 36 36 37 38 39 39
54 54 54 54 53 53 52 52 52 52 52 52 52 52 52 52 52 51 51 51 51 51 50 50 50 49 49 49 49 49 49 49 48 48 48 47 47 46 45 44 42 40 38 37 37 38 39 41 43 43 43 42 41 41 40 40 40 39 39 38 38 37 36 37 37 38 39 39 39
54 53 53 53 53 52 52 52 52 52 52 52 51 51 51 51 51 51 51 51 51 50 50 49 49 49 49 49 48 48 48 48 48 47 47 47 46 45 44 44 41 39 37 37 37 37 38 40 42 42 42 41 40 39 39 39 39 39 39 39 39 38 39 39 39 39 39 39 40
53 53 53 52 52 52 52 52 52 51 51 51 51 51 51 51 51 51 50 50 50 50 49 49 49 48 48 48 47 47 47 47 47 47 47 46 46 46 45 44 41 38 36 36 36 36 37 38 39 39 38 38 37 37 37 38 38 39 39 39 39 39 40 40 40 40 40 40 40
52 52 52 52 51 51 51 51 51 51 51 51 51 50 50 50 50 50 50 50 50 49 49 49 49 48 48 47 47 47 46 46 47 47 47 47 46 46 45 44 40 38 37 36 36 36 36 36 36 36 35 35 35 36 37 38 38 37 37 37 38 39 39 40 40 40 40 41 41
51 51 51 51 51 50 50 50 50 50 50 50 50 50 50 50 50 50 50 49 49 49 48 48 48 48 47 47 47 46 46 46 46 46 46 47 46 46 45 43 41 40 39 38 38 39 39 38 37 36 36 36 37 37 38 38 37 37 36 36 37 38 39 40 40 40 41 41 41
51 50 50 50 49 49 49 49 49 49 49 50 50 50 50 50 50 49 49 49 49 48 48 47 47 47 47 47 47 46 46 46 45 45 45 46 46 46 45 44 43 41 39 38 42 44 45 44 42 40 39 40 40 40 39 37 37 36 36 37 37 38 38 39 40 40 41 40 40
50 49 49 49 49 49 49 49 49 49 49 49 49 49 49 49 49 49 48 48 48 47 47 47 47 47 47 47 46 46 46 46 46 45 45 45 45 45 45 44 44 41 38 39 43 45 46 46 46 44 42 41 42 40 38 37 36 37 37 38 38 38 39 39 39 40 41 42 41
48 48 48 48 48 48 48 49 49 49 49 49 49 49 49 49 49 48 48 47 47 47 47 46 46 47 47 46 46 46 45 45 45 45 45 44 44 44 44 44 44 41 39 41 45 46 47 47 47 46 45 43 41 40 38 38 38 38 38 38 38 39 39 39 39 40 41 42 41
46 46 47 47 47 48 48 49 49 49 49 49 49 49 48 48 48 47 47 47 46 46 46 46 46 46 46 46 46 45 45 45 45 45 44 44 44 44 44 44 43 42 42 45 46 47 47 47 47 46 46 44 41 39 38 38 38 38 38 38 39 39 39 39 40 40 40 41 41
45 46 46 46 47 47 48 48 49 49 49 49 48 48 48 47 47 47 46 46 46 46 46 46 46 46 46 45 45 45 45 45 45 45 44 44 44 44 44 44 44 44 45 47 47 47 47 47 46 46 46 45 43 41 39 38 38 39 39 39 39 39 39 40 40 40 40 40 40
45 45 46 46 47 47 48 48 48 48 49 48 48 48 47 47 46 46 46 46 46 46 46 46 45 45 45 45 45 45 45 45 45 44 44 44 44 44 44 44 44 43 44 46 46 46 46 46 46 46 46 45 44 41 39 38 39 39 39 39 39 39 39 39 39 39 39 39 40
45 45 46 46 46 47 47 48 48 48 48 48 47 47 47 46 46 46 46 46 45 46 46 46 45 45 45 45 45 45 45 45 45 44 44 44 44 44 44 44 43 43 43 45 46 46 46 46 46 46 45 45 44 41 39 38 38 38 38 38 38 39 39 39 39 39 39 40 40
45 45 46 46 46 46 47 47 48 48 48 48 47 47 46 46 45 45 46 45 45 45 45 45 45 45 45 45 45 45 45 45 44 44 44 44 43 43 44 44 43 43 43 45 46 46 46 46 45 45 45 45 44 42 39 38 38 38 39 39 39 39 39 39 40 40 41 41 41
45 45 45 45 45 46 47 47 47 47 47 47 47 46 45 45 45 45 45 45 45 45 45 45 44 44 44 44 45 45 44 44 44 44 44 44 44 44 44 43 43 44 44 45 45 45 45 45 45 45 45 45 43 41 40 39 39 39 39 39 39 40 40 40 40 41 41 42 42
43 44 45 45 45 46 46 47 47 47 47 46 46 45 45 44 44 44 44 45 45 45 45 45 45 45 45 45 44 44 44 44 44 44 44 44 44 43 43 43 43 44 44 45 45 45 45 45 45 45 45 45 42 41 40 40 40 40 40 40 40 40 40 40 41 41 42 43 43
43 44 45 45 46 46 47 47 47 46 46 45 45 44 44 44 43 44 44 45 45 45 45 45 45 45 45 45 44 44 44 44 44 44 44 44 43 43 43 42 42 43 45 45 45 45 45 45 45 45 45 44 41 40 40 40 40 40 40 40 40 40 40 40 41 42 42 43 43
45 45 46 46 46 46 46 46 46 45 45 44 44 44 43 44 44 44 45 45 45 44 44 44 45 44 44 44 44 44 44 44 44 44 44 43 43 42 42 42 42 43 44 45 45 45 45 45 45 45 44 42 40 40 40 40 40 40 40 40 41 41 41 41 41 41 42 42 43
46 47 46 46 46 46 46 45 45 44 44 44 43 43 43 43 44 44 45 45 44 44 44 44 44 44 44 43 43 43 44 43 43 43 43 43 43 42 42 42 42 42 43 44 44 44 44 44 44 44 43 41 40 40 40 39 39 39 40 40 41 41 42 42 42 41 41 42 43
47 47 47 46 45 45 45 45 44 44 43 43 43 43 43 43 44 44 44 44 44 43 43 43 43 43 43 43 43 43 43 43 43 43 43 43 43 42 42 41 41 42 42 43 44 44 44 44 44 44 43 41 40 40 40 39 39 39 39 40 41 41 42 42 42 42 42 42 43
47 47 46 46 45 45 45 44 44 43 43 43 43 43 44 44 44 44 44 44 44 43 43 43 43 43 43 43 43 43 43 43 43 43 43 43 43 43 42 41 41 41 42 43 43 44 44 44 44 44 44 42 41 40 40 39 39 39 39 39 40 41 41 42 42 42 42 42 43
47 47 46 46 45 45 44 44 44 44 43 43 43 43 43 44 44 44 45 45 44 44 43 43 43 43 43 43 43 43 43 43 43 43 43 43 43 43 42 41 41 41 41 42 43 43 44 44 44 45 44 42 41 40 40 39 38 38 38 39 39 40 40 41 41 41 41 42 43
47 47 46 46 45 45 44 44 44 44 44 43 43 43 44 44 44 44 44 44 44 44 44 43 43 43 43 43 43 42 42 42 43 43 43 43 43 42 42 41 40 41 41 42 43 43 44 44 45 45 44 43 41 40 40 38 38 37 38 39 39 39 39 40 40 41 41 42 42
MSLP
1020.31 1020.35 1020.39 1020.39 1020.43 1020.43 1020.43 1020.39 1020.39 1020.35 1020.27 1020.23 1020.11 1020.03 1019.95 1019.87 1019.83 1019.71 1019.63 1019.55 1019.43 1019.31 1019.19 1019.11 1018.99 1018.87 1018.79 1018.67 1018.63 1018.55 1018.47 1018.39 1018.31 1018.23 1018.11 1018.03 1017.95 1017.87 1017.83 1017.71 1017.67 1017.55 1017.51 1017.43 1017.39 1017.27 1017.19 1017.11 1017.07 1016.99 1016.95 1016.83 1016.83 1016.71 1016.67 1016.59 1016.55 1016.47 1016.39 1016.31 1016.19 1016.11 1016.07 1015.99 1015.95 1015.87 1015.83 1015.79 1015.75
1020.27 1020.27 1020.31 1020.39 1020.39 1020.39 1020.39 1020.31 1020.27 1020.27 1020.23 1020.15 1020.11 1020.07 1019.99 1019.95 1019.83 1019.71 1019.63 1019.55 1019.43 1019.31 1019.19 1019.07 1018.95 1018.83 1018.75 1018.63 1018.55 1018.51 1018.39 1018.31 1018.23 1018.11 1018.03 1017.95 1017.83 1017.79 1017.67 1017.59 1017.51 1017.39 1017.35 1017.23 1017.19 1017.11 1016.95 1016.87 1016.83 1016.75 1016.67 1016.59 1016.55 1016.43 1016.35 1016.27 1016.27 1016.19 1016.11 1015.95 1015.91 1015.83 1015.79 1015.71 1015.59 1015.55 1015.51 1015.43 1015.39
1020.27 1020.27 1020.31 1020.31 1020.27 1020.27 1020.27 1020.23 1020.19 1020.15 1020.11 1020.07 1020.03 1019.99 1019.95 1019.91 1019.83 1019.67 1019.55 1019.47 1019.35 1019.23 1019.11 1018.99 1018.83 1018.71 1018.63 1018.55 1018.47 1018.39 1018.35 1018.27 1018.11 1018.03 1017.95 1017.83 1017.75 1017.67 1017.55 1017.47 1017.39 1017.27 1017.19 1017.11 1016.99 1016.91 1016.83 1016.71 1016.67 1016.55 1016.43 1016.35 1016.27 1016.19 1016.07 1015.99 1015.95 1015.91 1015.83 1015.71 1015.67 1015.59 1015.55 1015.43 1015.31 1015.23 1015.23 1015.15 1015.07
1020.27 1020.31 1020.27 1020.27 1020.27 1020.23 1020.19 1020.19 1020.11 1020.11 1020.03 1020.03 1019.99 1019.95 1019.87 1019.83 1019.71 1019.59 1019.51 1019.39 1019.23 1019.11 1018.95 1018.83 1018.71 1018.59 1018.51 1018.47 1018.39 1018.31 1018.27 1018.15 1018.07 1017.95 1017.87 1017.75 1017.63 1017.55 1017.47 1017.39 1017.27 1017.15 1017.07 1016.95 1016.83 1016.75 1016.67 1016.59 1016.51 1016.39 1016.27 1016.11 1016.03 1015.95 1015.83 1015.75 1015.67 1015.63 1015.55 1015.43 1015.39 1015.35 1015.23 1015.15 1015.07 1014.99 1014.95 1014.83 1014.79
1020.27 1020.27 1020.27 1020.27 1020.27 1020.23 1020.19 1020.19 1020.11 1020.07 1019.99 1019.99 1019.95 1019.83 1019.75 1019.67 1019.55 1019.43 1019.31 1019.19 1019.07 1018.95 1018.83 1018.75 1018.67 1018.55 1018.43 1018.39 1018.31 1018.23 1018.11 1018.07 1017.95 1017.87 1017.79 1017.67 1017.55 1017.43 1017.39 1017.27 1017.19 1017.07 1016.95 1016.83 1016.75 1016.67 1016.55 1016.47 1016.39 1016.27 1016.11 1015.95 1015.87 1015.75 1015.63 1015.55 1015.51 1015.39 1015.31 1015.23 1015.15 1015.11 1015.03 1014.95 1014.87 1014.79 1014.71 1014.59 1014.55
1020.27 1020.27 1020.27 1020.27 1020.23 1020.19 1020.15 1020.11 1020.07 1019.99 1019.95 1019.95 1019.83 1019.71 1019.59 1019.51 1019.39 1019.27 1019.15 1019.03 1018.87 1018.79 1018.71 1018.67 1018.55 1018.47 1018.39 1018.31 1018.23 1018.11 1018.03 1017.95 1017.87 1017.83 1017.67 1017.59 1017.47 1017.39 1017.27 1017.19 1017.11 1016.95 1016.87 1016.83 1016.71 1016.59 1016.51 1016.43 1016.27 1016.11 1015.95 1015.87 1015.71 1015.55 1015.47 1015.43 1015.35 1015.23 1015.11 1015.03 1014.95 1014.91 1014.83 1014.75 1014.63 1014.59 1014.51 1014.39 1014.27
1020.27 1020.27 1020.19 1020.19 1020.15 1020.11 1020.11 1020.07 1020.03 1019.95 1019.91 1019.83 1019.71 1019.59 1019.47 1019.31 1019.23 1019.11 1018.95 1018.87 1018.79 1018.67 1018.63 1018.55 1018.43 1018.39 1018.31 1018.23 1018.11 1018.07 1017.95 1017.91 1017.79 1017.71 1017.63 1017.55 1017.39 1017.27 1017.19 1017.11 1016.95 1016.91 1016.83 1016.75 1016.67 1016.55 1016.47 1016.39 1016.23 1016.03 1015.87 1015.75 1015.59 1015.47 1015.39 1015.35 1015.27 1015.15 1015.03 1014.91 1014.79 1014.71 1014.67 1014.55 1014.47 1014.39 1014.31 1014.19 1014.11
1020.27 1020.27 1020.19 1020.15 1020.11 1020.11 1020.03 1020.03 1019.95 1019.91 1019.83 1019.71 1019.63 1019.47 1019.35 1019.23 1019.15 1019.03 1018.91 1018.79 1018.71 1018.63 1018.55 1018.43 1018.39 1018.31 1018.27 1018.19 1018.11 1017.99 1017.95 1017.83 1017.71 1017.63 1017.55 1017.43 1017.31 1017.19 1017.11 1016.99 1016.95 1016.87 1016.75 1016.67 1016.59 1016.51 1016.39 1016.31 1016.15 1015.95 1015.83 1015.67 1015.55 1015.39 1015.27 1015.23 1015.15 1015.07 1014.95 1014.83 1014.67 1014.59 1014.55 1014.43 1014.35 1014.27 1014.19 1014.07 1013.99
1020.23 1020.15 1020.11 1020.11 1020.11 1020.03 1019.99 1019.95 1019.95 1019.87 1019.79 1019.67 1019.55 1019.39 1019.27 1019.19 1019.11 1018.95 1018.83 1018.71 1018.63 1018.55 1018.47 1018.39 1018.31 1018.27 1018.23 1018.11 1018.03 1017.95 1017.83 1017.75 1017.67 1017.55 1017.43 1017.35 1017.23 1017.11 1017.03 1016.95 1016.87 1016.79 1016.67 1016.63 1016.55 1016.43 1016.35 1016.27 1016.11 1015.91 1015.75 1015.63 1015.43 1015.31 1015.23 1015.19 1015.11 1014.95 1014.83 1014.75 1014.63 1014.51 1014.39 1014.35 1014.27 1014.15 1014.03 1013.95 1013.87
1020.15 1020.11 1020.11 1020.03 1019.99 1019.99 1019.95 1019.91 1019.87 1019.83 1019.71 1019.55 1019.43 1019.35 1019.23 1019.11 1019.03 1018.91 1018.79 1018.67 1018.55 1018.47 1018.39 1018.31 1018.27 1018.19 1018.11 1018.03 1017.95 1017.83 1017.75 1017.67 1017.55 1017.47 1017.35 1017.23 1017.15 1017.07 1016.95 1016.87 1016.83 1016.71 1016.59 1016.55 1016.43 1016.35 1016.27 1016.11 1015.95 1015.83 1015.67 1015.59 1015.43 1015.31 1015.23 1015.15 1015.11 1014.95 1014.83 1014.67 1014.55 1014.39 1014.27 1014.23 1014.15 1014.07 1013.95 1013.83 1013.79
1020.11 1020.07 1020.03 1019.95 1019.95 1019.91 1019.87 1019.83 1019.75 1019.67 1019.63 1019.51 1019.39 1019.27 1019.15 1019.07 1018.95 1018.83 1018.67 1018.59 1018.51 1018.39 1018.31 1018.27 1018.23 1018.11 1018.03 1017.95 1017.87 1017.79 1017.67 1017.59 1017.47 1017.35 1017.23 1017.15 1017.07 1016.95 1016.87 1016.79 1016.71 1016.63 1016.51 1016.39 1016.35 1016.27 1016.15 1016.03 1015.87 1015.71 1015.63 1015.51 1015.43 1015.31 1015.23 1015.11 1015.03 1014.95 1014.79 1014.67 1014.55 1014.39 1014.27 1014.11 1014.07 1014.03 1013.95 1013.83 1013.75
1020.03 1019.95 1019.95 1019.91 1019.83 1019.83 1019.79 1019.75 1019.67 1019.55 1019.51 1019.39 1019.27 1019.19 1019.11 1018.95 1018.83 1018.75 1018.63 1018.55 1018.43 1018.35 1018.27 1018.19 1018.19 1018.11 1018.03 1017.91 1017.83 1017.75 1017.63 1017.51 1017.39 1017.27 1017.19 1017.07 1016.95 1016.83 1016.75 1016.67 1016.59 1016.51 1016.39 1016.31 1016.27 1016.15 1016.03 1015.91 1015.79 1015.67 1015.55 1015.47 1015.39 1015.31 1015.19 1015.11 1014.99 1014.91 1014.79 1014.63 1014.55 1014.39 1014.27 1014.11 1014.07 1014.03 1013.99 1013.87 1013.79
1019.95 1019.91 1019.83 1019.83 1019.75 1019.71 1019.67 1019.63 1019.55 1019.47 1019.39 1019.27 1019.19 1019.11 1018.95 1018.87 1018.75 1018.67 1018.59 1018.47 1018.35 1018.27 1018.23 1018.15 1018.11 1018.11 1017.99 1017.87 1017.75 1017.63 1017.51 1017.39 1017.31 1017.19 1017.07 1016.95 1016.83 1016.71 1016.63 1016.51 1016.43 1016.39 1016.27 1016.19 1016.11 1016.07 1015.95 1015.83 1015.71 1015.63 1015.51 1015.39 1015.35 1015.23 1015.19 1015.11 1014.99 1014.87 1014.75 1014.63 1014.55 1014.39 1014.27 1014.15 1014.11 1014.07 1013.99 1013.87 1013.79
1019.87 1019.83 1019.79 1019.71 1019.67 1019.63 1019.59 1019.55 1019.43 1019.39 1019.27 1019.19 1019.11 1018.99 1018.91 1018.79 1018.67 1018.63 1018.55 1018.43 1018.35 1018.27 1018.19 1018.11 1018.07 1017.99 1017.87 1017.79 1017.67 1017.55 1017.43 1017.31 1017.19 1017.07 1016.95 1016.83 1016.67 1016.55 1016.47 1016.39 1016.31 1016.27 1016.19 1016.11 1016.03 1015.99 1015.91 1015.79 1015.67 1015.63 1015.51 1015.39 1015.27 1015.19 1015.11 1015.07 1014.95 1014.87 1014.75 1014.63 1014.51 1014.39 1014.27 1014.11 1014.11 1014.07 1013.95 1013.83 1013.71
1019.83 1019.75 1019.67 1019.63 1019.59 1019.55 1019.47 1019.39 1019.35 1019.27 1019.19 1019.11 1018.99 1018.95 1018.87 1018.75 1018.67 1018.55 1018.47 1018.39 1018.31 1018.27 1018.19 1018.11 1017.95 1017.87 1017.79 1017.71 1017.59 1017.47 1017.35 1017.23 1017.07 1016.95 1016.79 1016.67 1016.55 1016.43 1016.35 1016.27 1016.19 1016.15 1016.11 1016.03 1015.95 1015.91 1015.83 1015.79 1015.67 1015.59 1015.51 1015.35 1015.23 1015.11 1015.03 1014.99 1014.95 1014.83 1014.71 1014.59 1014.47 1014.31 1014.19 1014.11 1014.03 1013.99 1013.95 1013.83 1013.67
1019.75 1019.67 1019.59 1019.55 1019.51 1019.43 1019.39 1019.35 1019.27 1019.19 1019.11 1019.03 1018.95 1018.91 1018.83 1018.71 1018.63 1018.55 1018.43 1018.39 1018.27 1018.19 1018.11 1017.95 1017.87 1017.75 1017.67 1017.59 1017.51 1017.35 1017.19 1017.07 1016.95 1016.79 1016.63 1016.51 1016.39 1016.31 1016.23 1016.15 1016.11 1016.11 1016.03 1015.95 1015.87 1015.83 1015.75 1015.75 1015.67 1015.55 1015.43 1015.31 1015.15 1015.07 1014.95 1014.87 1014.83 1014.71 1014.63 1014.51 1014.39 1014.23 1014.11 1013.95 1013.91 1013.87 1013.79 1013.67 1013.59
1019.67 1019.59 1019.55 1019.47 1019.39 1019.39 1019.31 1019.27 1019.23 1019.15 1019.11 1019.03 1018.95 1018.87 1018.83 1018.67 1018.59 1018.51 1018.39 1018.31 1018.23 1018.11 1017.95 1017.87 1017.79 1017.67 1017.55 1017.43 1017.35 1017.23 1017.11 1016.95 1016.79 1016.67 1016.55 1016.39 1016.27 1016.23 1016.11 1016.07 1015.99 1015.95 1015.91 1015.87 1015.79 1015.71 1015.67 1015.59 1015.55 1015.47 1015.39 1015.23 1015.11 1014.95 1014.83 1014.75 1014.67 1014.55 1014.39 1014.27 1014.19 1014.07 1013.95 1013.83 1013.79 1013.75 1013.67 1013.55 1013.43
1019.59 1019.55 1019.47 1019.39 1019.35 1019.31 1019.27 1019.23 1019.23 1019.15 1019.07 1018.99 1018.91 1018.83 1018.71 1018.63 1018.55 1018.39 1018.31 1018.23 1018.15 1018.03 1017.87 1017.71 1017.67 1017.59 1017.47 1017.31 1017.23 1017.11 1016.99 1016.83 1016.67 1016.55 1016.39 1016.27 1016.19 1016.11 1016.03 1015.95 1015.83 1015.79 1015.79 1015.71 1015.67 1015.59 1015.51 1015.43 1015.39 1015.31 1015.23 1015.11 1014.95 1014.83 1014.67 1014.55 1014.39 1014.27 1014.15 1014.07 1013.95 1013.83 1013.79 1013.71 1013.67 1013.63 1013.55 1013.39 1013.23
1019.55 1019.51 1019.43 1019.39 1019.31 1019.27 1019.23 1019.23 1019.15 1019.07 1018.95 1018.91 1018.83 1018.67 1018.63 1018.55 1018.43 1018.35 1018.23 1018.11 1017.99 1017.91 1017.79 1017.63 1017.55 1017.43 1017.35 1017.23 1017.07 1016.95 1016.83 1016.71 1016.55 1016.39 1016.27 1016.19 1016.07 1015.95 1015.87 1015.79 1015.67 1015.63 1015.63 1015.55 1015.51 1015.43 1015.35 1015.27 1015.19 1015.11 1014.99 1014.87 1014.71 1014.59 1014.43 1014.35 1014.23 1014.07 1013.91 1013.83 1013.75 1013.67 1013.63 1013.59 1013.55 1013.47 1013.39 1013.23 1013.03
1019.55 1019.47 1019.39 1019.35 1019.31 1019.23 1019.19 1019.11 1019.07 1018.95 1018.87 1018.83 1018.67 1018.59 1018.51 1018.39 1018.35 1018.23 1018.11 1017.95 1017.83 1017.79 1017.67 1017.55 1017.39 1017.23 1017.15 1017.03 1016.91 1016.79 1016.67 1016.59 1016.43 1016.27 1016.11 1016.03 1015.91 1015.79 1015.67 1015.59 1015.51 1015.47 1015.47 1015.39 1015.31 1015.23 1015.15 1015.11 1014.95 1014.83 1014.71 1014.63 1014.51 1014.35 1014.23 1014.11 1013.99 1013.87 1013.75 1013.67 1013.59 1013.51 1013.43 1013.39 1013.27 1013.19 1013.07 1012.91 1012.75
1019.55 1019.47 1019.39 1019.35 1019.27 1019.23 1019.15 1019.07 1018.99 1018.91 1018.79 1018.71 1018.59 1018.51 1018.39 1018.27 1018.19 1018.11 1017.95 1017.83 1017.71 1017.63 1017.55 1017.39 1017.23 1017.11 1016.99 1016.87 1016.75 1016.63 1016.51 1016.39 1016.31 1016.15 1015.95 1015.83 1015.75 1015.63 1015.51 1015.39 1015.31 1015.23 1015.23 1015.19 1015.11 1015.03 1014.95 1014.91 1014.79 1014.63 1014.51 1014.39 1014.27 1014.15 1014.07 1013.95 1013.79 1013.67 1013.55 1013.43 1013.35 1013.23 1013.11 1013.03 1012.91 1012.79 1012.67 1012.51 1012.35
1019.55 1019.47 1019.39 1019.35 1019.27 1019.19 1019.11 1018.99 1018.91 1018.83 1018.67 1018.59 1018.47 1018.39 1018.27 1018.15 1018.03 1017.91 1017.83 1017.71 1017.59 1017.51 1017.39 1017.23 1017.11 1016.99 1016.87 1016.75 1016.63 1016.51 1016.39 1016.27 1016.15 1015.99 1015.83 1015.67 1015.55 1015.39 1015.31 1015.19 1015.11 1015.03 1014.99 1014.95 1014.91 1014.83 1014.79 1014.67 1014.55 1014.47 1014.39 1014.27 1014.11 1013.99 1013.87 1013.75 1013.55 1013.39 1013.19 1013.11 1012.99 1012.91 1012.79 1012.67 1012.55 1012.39 1012.27 1012.11 1011.99
1019.55 1019.47 1019.39 1019.35 1019.23 1019.15 1019.07 1018.95 1018.83 1018.71 1018.55 1018.47 1018.35 1018.23 1018.11 1017.99 1017.87 1017.75 1017.67 1017.55 1017.43 1017.31 1017.23 1017.11 1016.95 1016.83 1016.71 1016.63 1016.51 1016.39 1016.23 1016.07 1015.91 1015.79 1015.63 1015.51 1015.35 1015.19 1015.11 1014.99 1014.95 1014.83 1014.79 1014.71 1014.67 1014.67 1014.55 1014.47 1014.39 1014.27 1014.23 1014.11 1013.95 1013.75 1013.63 1013.47 1013.31 1013.11 1012.95 1012.83 1012.67 1012.55 1012.43 1012.31 1012.19 1012.07 1011.95 1011.79 1011.67
1019.55 1019.47 1019.39 1019.31 1019.23 1019.11 1018.99 1018.87 1018.71 1018.55 1018.43 1018.35 1018.23 1018.11 1017.95 1017.87 1017.75 1017.63 1017.51 1017.39 1017.27 1017.19 1017.07 1016.95 1016.83 1016.67 1016.59 1016.51 1016.35 1016.23 1016.07 1015.87 1015.67 1015.55 1015.39 1015.27 1015.11 1014.95 1014.87 1014.79 1014.67 1014.59 1014.55 1014.47 1014.43 1014.39 1014.35 1014.23 1014.07 1013.95 1013.83 1013.75 1013.55 1013.39 1013.23 1013.11 1012.95 1012.83 1012.67 1012.55 1012.39 1012.27 1012.11 1011.95 1011.83 1011.71 1011.59 1011.39 1011.27
1019.55 1019.47 1019.39 1019.31 1019.19 1019.07 1018.91 1018.75 1018.63 1018.47 1018.31 1018.19 1018.11 1017.95 1017.83 1017.71 1017.59 1017.51 1017.39 1017.23 1017.11 1017.03 1016.91 1016.83 1016.67 1016.55 1016.43 1016.31 1016.15 1015.99 1015.87 1015.71 1015.51 1015.31 1015.15 1014.99 1014.91 1014.83 1014.67 1014.59 1014.43 1014.35 1014.31 1014.27 1014.15 1014.07 1013.95 1013.87 1013.75 1013.63 1013.47 1013.35 1013.15 1012.95 1012.83 1012.71 1012.67 1012.55 1012.47 1012.31 1012.15 1011.95 1011.75 1011.55 1011.39 1011.31 1011.19 1011.03 1010.87
1019.55 1019.47 1019.39 1019.27 1019.15 1018.99 1018.83 1018.67 1018.51 1018.35 1018.19 1018.07 1017.95 1017.83 1017.71 1017.55 1017.47 1017.39 1017.23 1017.11 1016.95 1016.87 1016.75 1016.67 1016.55 1016.39 1016.27 1016.11 1015.91 1015.75 1015.63 1015.51 1015.31 1015.15 1014.99 1014.83 1014.67 1014.55 1014.51 1014.39 1014.23 1014.11 1014.11 1014.03 1013.91 1013.79 1013.67 1013.55 1013.39 1013.27 1013.19 1013.07 1012.87 1012.67 1012.55 1012.47 1012.39 1012.31 1012.19 1012.03 1011.83 1011.67 1011.43 1011.19 1010.95 1010.83 1010.71 1010.59 1010.47
1019.55 1019.43 1019.35 1019.23 1019.07 1018.87 1018.67 1018.51 1018.39 1018.23 1018.03 1017.91 1017.79 1017.67 1017.55 1017.43 1017.35 1017.23 1017.11 1016.95 1016.83 1016.75 1016.63 1016.51 1016.39 1016.23 1016.07 1015.87 1015.71 1015.55 1015.43 1015.27 1015.15 1014.99 1014.83 1014.67 1014.55 1014.39 1014.27 1014.15 1014.03 1013.95 1013.87 1013.75 1013.59 1013.47 1013.35 1013.23 1013.11 1012.99 1012.91 1012.83 1012.67 1012.55 1012.39 1012.19 1012.11 1011.99 1011.87 1011.71 1011.55 1011.31 1011.11 1010.91 1010.67 1010.47 1010.31 1010.15 1010.03
1019.55 1019.43 1019.27 1019.11 1018.91 1018.67 1018.51 1018.35 1018.19 1018.03 1017.87 1017.75 1017.67 1017.55 1017.47 1017.35 1017.23 1017.11 1016.95 1016.83 1016.71 1016.59 1016.43 1016.31 1016.15 1016.03 1015.87 1015.67 1015.55 1015.39 1015.23 1015.11 1014.95 1014.83 1014.67 1014.51 1014.39 1014.19 1014.03 1013.91 1013.75 1013.67 1013.55 1013.43 1013.31 1013.19 1013.07 1012.91 1012.83 1012.75 1012.67 1012.63 1012.51 1012.39 1012.19 1012.03 1011.87 1011.71 1011.55 1011.39 1011.15 1010.95 1010.79 1010.59 1010.39 1010.15 1009.95 1009.75 1009.59
1019.51 1019.35 1019.19 1018.95 1018.75 1018.55 1018.39 1018.23 1018.03 1017.91 1017.75 1017.67 1017.55 1017.47 1017.35 1017.23 1017.11 1016.99 1016.83 1016.67 1016.55 1016.43 1016.27 1016.15 1015.99 1015.87 1015.71 1015.55 1015.35 1015.19 1015.03 1014.91 1014.75 1014.59 1014.43 1014.27 1014.11 1013.95 1013.83 1013.67 1013.51 1013.39 1013.27 1013.19 1013.03 1012.95 1012.83 1012.75 1012.67 1012.55 1012.51 1012.39 1012.27 1012.15 1011.99 1011.83 1011.67 1011.43 1011.23 1011.07 1010.87 1010.67 1010.51 1010.35 1010.15 1009.95 1009.67 1009.51 1009.31
1019.39 1019.23 1018.99 1018.79 1018.59 1018.39 1018.27 1018.11 1017.95 1017.79 1017.67 1017.59 1017.47 1017.35 1017.19 1017.11 1016.95 1016.83 1016.67 1016.55 1016.39 1016.27 1016.11 1016.03 1015.83 1015.67 1015.55 1015.35 1015.19 1014.95 1014.83 1014.63 1014.55 1014.39 1014.27 1014.07 1013.87 1013.71 1013.55 1013.43 1013.31 1013.19 1013.07 1012.95 1012.87 1012.75 1012.63 1012.55 1012.43 1012.31 1012.23 1012.11 1012.03 1011.91 1011.79 1011.59 1011.39 1011.23 1011.03 1010.83 1010.67 1010.51 1010.35 1010.11 1009.95 1009.71 1009.51 1009.23 1009.07
1019.27 1019.11 1018.87 1018.67 1018.47 1018.27 1018.11 1017.95 1017.83 1017.67 1017.55 1017.43 1017.35 1017.19 1017.07 1016.95 1016.83 1016.67 1016.55 1016.39 1016.27 1016.11 1015.99 1015.87 1015.71 1015.55 1015.31 1015.15 1014.95 1014.79 1014.59 1014.39 1014.27 1014.19 1014.07 1013.87 1013.67 1013.55 1013.39 1013.23 1013.11 1012.99 1012.87 1012.79 1012.67 1012.55 1012.43 1012.31 1012.19 1012.11 1011.99 1011.87 1011.75 1011.67 1011.55 1011.39 1011.23 1011.03 1010.83 1010.63 1010.47 1010.27 1010.11 1009.91 1009.67 1009.43 1009.23 1009.07 1008.83
1019.11 1018.91 1018.71 1018.55 1018.35 1018.19 1017.99 1017.83 1017.71 1017.59 1017.47 1017.31 1017.19 1017.07 1016.95 1016.79 1016.67 1016.55 1016.43 1016.31 1016.15 1015.99 1015.83 1015.67 1015.51 1015.27 1015.07 1014.95 1014.75 1014.59 1014.43 1014.27 1014.11 1013.95 1013.83 1013.71 1013.55 1013.35 1013.19 1013.07 1012.91 1012.83 1012.71 1012.59 1012.47 1012.35 1012.27 1012.11 1011.99 1011.87 1011.75 1011.67 1011.51 1011.35 1011.23 1011.11 1010.95 1010.79 1010.63 1010.39 1010.23 1010.03 1009.83 1009.67 1009.39 1009.19 1008.95 1008.71 1008.55
1018.95 1018.79 1018.59 1018.39 1018.23 1018.03 1017.87 1017.71 1017.55 1017.43 1017.31 1017.19 1017.03 1016.91 1016.83 1016.67 1016.55 1016.43 1016.35 1016.19 1016.07 1015.87 1015.67 1015.47 1015.27 1015.11 1014.91 1014.71 1014.55 1014.39 1014.23 1014.11 1013.95 1013.79 1013.67 1013.55 1013.39 1013.19 1012.99 1012.83 1012.67 1012.59 1012.51 1012.39 1012.27 1012.15 1012.03 1011.91 1011.79 1011.63 1011.51 1011.35 1011.23 1011.15 1010.99 1010.83 1010.67 1010.51 1010.31 1010.11 1009.87 1009.71 1009.55 1009.35 1009.15 1008.87 1008.59 1008.39 1008.15
1018.83 1018.63 1018.43 1018.27 1018.07 1017.83 1017.67 1017.55 1017.39 1017.27 1017.15 1017.03 1016.91 1016.79 1016.67 1016.55 1016.43 1016.27 1016.15 1015.99 1015.87 1015.67 1015.51 1015.31 1015.15 1014.95 1014.75 1014.59 1014.39 1014.23 1014.03 1013.87 1013.79 1013.67 1013.51 1013.39 1013.19 1012.99 1012.83 1012.67 1012.55 1012.43 1012.31 1012.23 1012.11 1011.95 1011.83 1011.67 1011.55 1011.39 1011.23 1011.11 1010.99 1010.91 1010.75 1010.59 1010.39 1010.19 1009.95 1009.79 1009.55 1009.39 1009.23 1008.99 1008.79 1008.55 1008.27 1008.07 1007.83
1018.63 1018.43 1018.19 1017.99 1017.83 1017.63 1017.51 1017.39 1017.23 1017.15 1017.03 1016.91 1016.75 1016.67 1016.55 1016.47 1016.31 1016.15 1015.99 1015.83 1015.67 1015.51 1015.31 1015.11 1014.95 1014.79 1014.59 1014.39 1014.27 1014.11 1013.91 1013.71 1013.55 1013.43 1013.35 1013.23 1013.03 1012.83 1012.63 1012.47 1012.35 1012.27 1012.15 1012.03 1011.91 1011.75 1011.63 1011.47 1011.31 1011.15 1011.03 1010.87 1010.79 1010.67 1010.51 1010.27 1010.07 1009.83 1009.67 1009.43 1009.23 1009.07 1008.83 1008.67 1008.43 1008.15 1007.95 1007.79 1007.55
1018.39 1018.15 1017.95 1017.75 1017.55 1017.47 1017.35 1017.23 1017.15 1017.03 1016.91 1016.79 1016.67 1016.55 1016.39 1016.27 1016.15 1016.03 1015.87 1015.71 1015.51 1015.31 1015.11 1014.95 1014.75 1014.59 1014.39 1014.23 1014.07 1013.95 1013.79 1013.63 1013.43 1013.27 1013.15 1013.07 1012.87 1012.67 1012.43 1012.27 1012.11 1012.03 1011.95 1011.87 1011.71 1011.59 1011.43 1011.27 1011.11 1010.95 1010.83 1010.67 1010.55 1010.39 1010.19 1009.95 1009.75 1009.55 1009.39 1009.15 1008.95 1008.71 1008.51 1008.31 1008.07 1007.83 1007.67 1007.51 1007.31
1018.07 1017.91 1017.75 1017.55 1017.43 1017.31 1017.23 1017.15 1017.03 1016.91 1016.75 1016.63 1016.55 1016.39 1016.27 1016.11 1015.95 1015.83 1015.67 1015.55 1015.35 1015.11 1014.91 1014.75 1014.59 1014.39 1014.23 1014.07 1013.87 1013.75 1013.63 1013.51 1013.35 1013.11 1012.95 1012.83 1012.67 1012.51 1012.27 1011.99 1011.87 1011.83 1011.75 1011.67 1011.55 1011.39 1011.23 1011.07 1010.91 1010.75 1010.59 1010.43 1010.27 1010.11 1009.91 1009.67 1009.51 1009.27 1009.07 1008.83 1008.59 1008.39 1008.19 1007.99 1007.79 1007.59 1007.39 1007.19 1006.99
1017.83 1017.75 1017.63 1017.51 1017.35 1017.23 1017.11 1017.03 1016.91 1016.75 1016.63 1016.47 1016.39 1016.27 1016.11 1015.99 1015.83 1015.67 1015.55 1015.39 1015.23 1014.95 1014.71 1014.55 1014.39 1014.23 1014.03 1013.87 1013.71 1013.55 1013.43 1013.31 1013.19 1012.95 1012.75 1012.59 1012.47 1012.35 1012.11 1011.83 1011.67 1011.63 1011.59 1011.51 1011.35 1011.19 1010.99 1010.83 1010.67 1010.51 1010.35 1010.15 1009.95 1009.79 1009.59 1009.39 1009.23 1008.95 1008.75 1008.55 1008.27 1008.11 1007.95 1007.75 1007.55 1007.31 1007.11 1006.87 1006.63
1017.71 1017.63 1017.55 1017.39 1017.23 1017.11 1016.99 1016.87 1016.75 1016.63 1016.47 1016.35 1016.19 1016.11 1015.95 1015.83 1015.67 1015.51 1015.35 1015.23 1015.07 1014.83 1014.59 1014.35 1014.19 1014.03 1013.87 1013.71 1013.55 1013.35 1013.15 1013.07 1012.95 1012.79 1012.55 1012.39 1012.27 1012.15 1011.99 1011.79 1011.55 1011.43 1011.39 1011.27 1011.15 1010.95 1010.79 1010.59 1010.39 1010.23 1010.03 1009.87 1009.67 1009.51 1009.31 1009.11 1008.91 1008.71 1008.51 1008.31 1008.07 1007.83 1007.67 1007.51 1007.27 1007.07 1006.83 1006.55 1006.27
1017.59 1017.51 1017.39 1017.23 1017.11 1016.95 1016.83 1016.71 1016.59 1016.51 1016.39 1016.23 1016.07 1015.91 1015.79 1015.67 1015.47 1015.31 1015.15 1015.03 1014.83 1014.67 1014.47 1014.23 1013.99 1013.87 1013.71 1013.55 1013.35 1013.11 1012.91 1012.71 1012.67 1012.55 1012.39 1012.23 1012.11 1011.95 1011.87 1011.67 1011.47 1011.31 1011.15 1011.03 1010.91 1010.71 1010.55 1010.35 1010.11 1009.91 1009.75 1009.63 1009.43 1009.23 1009.03 1008.87 1008.67 1008.47 1008.27 1008.07 1007.83 1007.63 1007.39 1007.19 1006.99 1006.79 1006.55 1006.27 1005.95
1017.39 1017.31 1017.23 1017.11 1016.95 1016.83 1016.67 1016.55 1016.39 1016.31 1016.23 1016.11 1015.95 1015.79 1015.63 1015.47 1015.31 1015.15 1014.95 1014.83 1014.63 1014.51 1014.31 1014.11 1013.83 1013.67 1013.55 1013.39 1013.15 1012.91 1012.67 1012.47 1012.39 1012.31 1012.23 1012.11 1011.95 1011.83 1011.75 1011.59 1011.39 1011.15 1010.95 1010.83 1010.67 1010.47 1010.27 1010.03 1009.83 1009.63 1009.47 1009.31 1009.15 1008.99 1008.83 1008.67 1008.47 1008.27 1007.99 1007.83 1007.63 1007.39 1007.19 1006.95 1006.67 1006.47 1006.27 1005.95 1005.67
Wind_Speed
3 3 3 3 3 3 3 3 4 4 4 4 5 5 5 5 5 5 5 5 5 5 6 6 6 6 7 9 10 10 10 10 11 11 11 12 12 12 12 11 11 11 12 12 12 12 11 11 10 9 8 8 9 9 10 9 10 11 12 12 11 11 13 14 14 15 16 17 14
4 4 4 3 3 3 3 3 4 4 4 4 4 5 5 5 5 6 6 6 6 6 6 6 7 8 9 10 10 10 11 11 12 12 12 12 12 12 12 11 12 12 12 12 12 11 10 11 10 9 8 7 8 9 10 10 10 12 13 14 12 11 11 12 13 15 16 16 15
4 4 4 4 4 4 4 4 4 5 5 5 5 5 5 5 5 6 6 6 7 7 7 7 7 9 10 11 10 10 10 11 12 12 12 12 12 13 12 12 12 13 13 12 12 11 10 11 10 9 8 7 8 9 10 10 11 12 13 14 12 10 9 10 11 12 12 12 13
5 5 5 5 6 6 5 5 5 6 6 5 5 6 6 6 6 6 6 7 8 8 8 7 8 9 9 10 11 11 11 12 12 13 13 12 13 13 13 13 13 13 13 12 12 12 12 12 10 8 8 10 11 11 10 9 10 11 11 10 10 10 10 9 10 10 10 10 12
5 5 5 5 6 6 6 6 7 7 7 6 6 6 6 6 6 6 7 7 7 8 8 9 9 9 9 10 12 12 13 13 13 12 12 12 13 13 13 14 14 13 13 12 13 13 13 13 10 8 9 10 9 9 10 11 11 11 10 8 8 9 9 9 9 9 9 9 10
6 6 6 6 7 7 6 6 8 8 7 7 7 8 8 7 7 7 8 8 9 10 11 11 11 10 10 11 12 12 12 12 12 12 12 13 13 13 14 14 14 13 13 12 13 13 13 12 9 8 8 9 9 10 11 13 12 11 10 9 9 9 9 10 9 9 9 11 12
6 7 7 7 8 7 7 8 8 8 8 8 9 10 10 10 10 10 11 10 10 10 10 10 10 10 10 11 11 12 12 11 12 12 13 13 13 13 13 13 13 13 13 13 13 13 12 11 9 9 9 9 8 10 11 12 11 11 11 11 10 9 9 10 9 9 10 13 15
7 8 8 8 8 8 9 9 9 9 8 8 9 11 12 13 13 13 12 11 10 10 9 8 10 11 11 11 12 12 12 13 13 13 13 12 13 14 14 13 13 14 13 13 13 13 12 10 9 9 9 8 8 9 10 12 12 12 12 12 11 10 9 9 9 9 11 14 15
7 8 8 8 8 9 9 9 9 10 10 10 11 12 13 13 13 13 12 11 10 10 9 9 10 12 12 13 13 13 12 12 13 13 12 12 13 13 13 13 13 13 13 12 13 13 13 10 9 9 9 8 8 9 10 11 12 13 13 12 12 12 11 11 11 12 13 14 14
8 8 8 8 9 9 9 10 10 10 11 12 12 13 13 13 12 12 11 9 9 10 10 10 11 12 12 13 13 12 12 12 12 12 13 13 13 13 13 12 12 13 13 12 12 13 12 11 10 10 10 10 11 11 12 12 13 14 13 11 12 13 14 14 14 15 15 14 14
9 9 9 9 9 9 10 10 10 10 10 11 12 12 12 12 12 11 10 10 10 11 11 11 11 12 12 12 12 12 12 11 11 12 12 13 13 13 13 12 12 13 13 13 12 11 11 10 11 12 12 12 12 12 13 13 14 14 14 12 13 15 16 16 15 14 13 13 14
9 9 9 9 10 10 10 10 9 9 10 11 11 12 11 11 11 11 11 11 12 12 11 11 11 12 11 10 11 11 11 12 12 13 13 13 14 14 13 13 13 13 14 14 12 11 10 10 11 13 14 14 12 11 12 14 14 14 14 14 14 15 15 16 15 13 12 12 13
10 10 10 10 10 10 10 10 9 9 10 11 11 11 10 10 11 11 11 12 12 11 10 10 11 11 11 11 11 11 11 12 13 13 13 14 14 14 13 13 12 13 13 13 12 11 11 11 12 13 14 15 13 12 13 14 14 14 14 15 15 15 15 15 14 13 13 14 15
10 10 10 10 10 10 9 9 9 9 9 11 10 10 10 10 10 11 11 11 11 10 10 10 10 10 10 11 11 12 12 13 14 14 15 14 14 14 13 12 11 11 12 12 12 12 12 12 13 14 15 16 15 15 15 15 14 14 14 15 15 15 15 15 14 14 14 15 16
11 11 11 11 10 10 9 9 8 8 9 10 10 10 10 10 10 10 10 10 11 10 10 10 10 10 11 12 13 13 14 14 14 15 15 15 15 14 13 12 11 10 10 11 12 12 13 13 13 14 15 16 17 16 16 15 15 14 14 15 15 16 16 16 15 14 14 15 16
11 11 11 11 11 10 9 9 8 8 9 10 10 10 10 9 9 9 10 10 10 10 10 10 10 11 11 12 13 14 14 14 14 15 15 15 15 14 14 13 11 10 10 11 12 13 12 12 12 14 15 16 16 16 16 16 15 15 15 16 16 16 16 16 15 14 14 14 15
12 11 11 11 11 11 10 10 9 9 9 10 11 10 10 10 9 9 10 10 10 10 11 12 11 11 11 12 12 13 13 13 14 14 14 14 14 14 14 13 11 10 10 10 11 12 12 12 12 13 14 15 15 15 16 16 16 16 16 16 16 16 16 15 14 13 13 14 15
12 12 12 12 12 11 11 11 10 10 11 11 11 11 10 10 10 10 10 11 11 12 13 13 12 12 12 13 12 12 12 13 13 14 14 14 14 14 14 13 12 11 10 9 10 11 11 12 12 13 13 14 14 14 15 15 15 16 16 16 16 15 14 13 13 12 13 14 16
12 12 12 12 12 12 11 12 11 11 12 12 11 11 11 11 11 11 11 12 12 13 13 14 13 13 13 14 13 13 12 13 14 15 15 15 15 14 14 13 12 11 10 10 10 10 11 12 13 14 14 14 14 14 14 15 15 15 16 15 15 14 13 12 12 13 14 16 17
13 13 12 12 12 12 12 12 12 12 12 11 12 12 12 12 12 12 13 13 13 13 13 14 14 14 14 14 14 14 13 12 13 15 15 15 15 14 14 13 12 11 10 9 9 10 10 12 14 15 15 15 15 15 15 15 15 15 14 14 14 13 13 13 14 15 16 17 18
13 13 13 12 12 12 12 12 12 12 12 12 13 13 13 13 13 13 13 13 13 14 14 14 14 15 15 15 15 15 14 12 13 14 15 15 15 14 13 13 12 10 9 9 9 9 10 11 13 14 15 15 15 14 14 15 15 15 16 15 15 15 15 16 16 16 16 17 17
13 13 12 12 12 12 13 13 13 13 13 13 13 13 13 13 13 13 13 13 13 14 14 14 15 15 15 15 15 15 14 13 14 14 15 14 14 14 13 12 11 10 9 9 9 9 9 10 11 12 12 12 12 13 14 14 15 17 17 17 17 17 17 17 17 17 17 17 17
13 13 12 12 12 13 13 13 13 13 13 13 13 13 13 13 14 14 14 13 13 14 14 14 14 14 15 15 15 15 15 15 15 15 15 15 15 14 13 12 11 10 10 9 8 8 8 9 9 10 10 10 11 12 13 14 14 15 15 15 16 16 17 17 16 16 16 16 16
13 13 12 11 12 13 13 13 13 13 13 13 13 14 14 14 14 14 14 14 14 14 14 13 13 14 15 15 15 15 16 16 16 16 16 16 15 15 13 12 10 10 9 8 8 8 9 9 8 8 9 9 10 12 12 13 12 12 12 13 14 15 16 16 16 16 16 17 16
13 13 13 13 13 14 14 14 14 14 14 13 14 14 14 14 14 14 14 14 14 15 15 14 14 14 14 14 15 15 15 16 16 16 16 16 16 15 14 12 11 10 8 7 11 15 16 16 13 11 10 10 11 12 12 11 11 11 11 12 14 15 16 17 17 17 17 17 16
14 14 14 14 14 14 14 14 14 14 14 14 14 14 14 14 14 14 14 15 15 15 15 15 14 14 14 14 14 14 14 14 14 15 15 16 16 16 15 13 12 9 8 8 14 17 20 22 21 18 14 12 12 12 11 10 10 11 12 13 15 16 17 17 17 17 17 16 16
14 14 14 14 14 15 15 14 14 14 14 14 14 14 14 14 13 14 15 15 15 15 14 13 13 13 13 13 14 14 14 13 14 14 15 15 16 16 15 14 11 9 8 12 17 20 22 23 23 22 20 15 13 12 11 11 11 12 13 13 14 15 16 16 17 17 17 17 17
14 14 15 15 15 15 15 14 14 14 14 14 14 14 14 14 15 15 15 15 15 14 13 12 12 11 11 11 12 13 14 14 14 14 14 15 15 16 16 14 12 11 12 16 20 22 23 24 24 24 23 20 15 12 11 12 12 12 12 12 13 14 15 15 15 15 16 17 17
15 15 15 15 15 15 15 15 15 15 15 14 14 14 14 14 15 15 15 15 15 14 13 11 10 10 10 11 13 14 15 15 14 14 14 15 15 16 15 15 14 14 16 21 23 24 24 24 24 24 24 23 17 12 10 10 11 11 11 11 11 12 13 14 14 15 15 15 15
14 14 15 15 15 15 15 15 15 15 14 13 14 14 15 15 15 15 15 15 15 14 13 11 11 12 13 14 14 14 14 14 14 14 14 15 16 16 16 16 15 15 16 20 23 24 24 24 24 24 25 25 20 15 10 10 11 11 11 11 12 13 14 15 16 16 15 13 13
14 14 14 15 15 15 15 15 15 15 14 14 14 14 15 15 15 15 15 15 15 14 14 14 15 15 16 16 15 15 15 15 14 14 14 15 16 17 17 17 16 16 16 20 22 24 24 24 24 25 25 25 21 15 11 10 11 11 11 12 13 14 15 15 15 15 15 16 16
14 14 15 15 15 15 15 15 15 15 15 15 15 15 15 15 15 15 15 14 14 15 15 16 16 17 17 16 16 16 16 16 15 15 15 15 16 17 18 18 17 16 17 21 22 24 24 25 25 25 26 26 22 17 13 11 12 12 12 14 15 16 16 14 14 15 18 19 19
14 14 15 15 15 15 15 15 15 15 15 15 15 15 15 15 15 15 14 14 14 15 15 16 16 16 16 16 16 16 16 16 16 16 17 17 17 18 18 17 16 16 18 21 23 24 25 25 26 26 26 26 22 17 13 12 11 11 12 13 14 15 16 17 17 17 19 19 19
13 14 15 15 15 15 15 15 15 15 15 15 15 15 15 15 15 15 14 14 14 14 14 15 15 16 16 16 16 16 16 15 15 16 17 17 18 18 18 16 13 15 19 23 24 25 25 26 26 26 26 26 20 15 13 13 13 13 13 14 15 15 15 16 17 18 19 20 18
13 14 15 15 15 15 15 15 15 15 15 16 16 15 15 15 15 15 15 15 15 15 15 15 15 15 15 15 16 16 17 17 17 17 17 17 18 19 19 18 16 18 21 24 25 25 26 26 26 27 26 23 16 13 13 14 14 14 15 15 16 16 16 15 16 17 18 18 18
13 14 15 15 15 15 16 16 16 16 16 16 16 16 15 15 15 15 15 15 15 15 15 15 15 15 16 16 15 15 16 17 18 18 18 17 18 19 19 19 18 19 22 24 25 25 26 26 26 27 25 20 14 12 12 13 12 13 14 15 16 17 16 16 15 15 16 16 17
13 14 15 16 16 16 16 16 16 16 16 16 16 16 16 16 15 15 14 14 15 15 15 15 16 16 16 16 16 16 16 16 17 18 18 18 18 18 19 19 19 19 21 23 24 25 26 26 27 26 23 18 13 12 11 11 10 11 13 14 15 16 16 15 15 15 15 15 17
14 15 15 16 16 16 16 16 16 16 16 16 16 15 15 15 15 14 14 14 14 15 16 16 16 16 16 17 16 17 17 17 17 18 18 18 18 18 19 20 19 19 20 22 24 25 26 26 27 26 23 17 14 12 11 10 10 11 11 12 13 14 14 13 13 13 14 16 19
15 15 15 16 16 16 16 16 16 16 16 16 15 15 15 15 14 14 14 14 14 15 16 16 16 16 17 17 17 17 17 17 17 18 18 18 18 18 19 19 19 19 20 22 24 26 26 26 26 26 23 18 14 12 10 9 10 11 11 11 11 12 13 13 12 12 13 17 21
15 15 15 15 16 16 16 16 16 16 15 15 15 15 15 15 14 14 14 13 14 15 15 16 17 17 17 17 17 17 18 18 17 17 17 18 18 19 20 19 19 19 20 22 24 25 26 26 26 26 23 17 13 11 10 9 10 10 11 11 11 11 11 12 12 12 13 15 18
15 15 15 16 16 16 16 16 16 16 15 15 15 15 15 14 14 14 14 13 14 15 15 15 17 18 18 17 16 17 18 18 18 17 17 18 18 18 18 18 19 19 20 21 23 25 25 26 26 25 23 18 13 11 9 8 9 10 11 12 11 11 11 11 11 12 12 13 13
Wind_Direction
309 305 300 298 294 291 289 289 289 288 287 288 290 293 295 296 295 295 294 293 292 292 292 291 290 289 289 290 291 292 292 292 292 291 290 289 287 286 285 282 279 276 273 271 269 267 264 261 258 255 252 249 249 249 248 247 247 247 247 246 246 246 246 245 245 243 242 241 240
315 313 307 300 290 284 281 283 284 284 283 283 286 289 291 291 290 290 289 288 287 288 288 287 287 287 288 290 292 293 293 293 293 293 292 291 290 288 287 285 282 279 276 274 272 270 268 266 263 260 256 252 251 250 249 246 246 247 248 247 247 247 247 247 246 245 244 244 242
315 313 309 302 297 293 291 288 288 289 290 290 290 290 288 286 284 284 283 283 283 283 284 284 284 286 288 290 292 292 292 292 292 292 292 291 290 289 289 287 286 284 281 278 275 272 270 269 267 264 261 257 254 253 252 250 248 248 249 248 248 248 248 248 248 247 246 245 244
312 311 308 305 302 301 300 298 296 295 296 295 293 289 285 282 279 278 278 279 280 280 280 282 284 287 289 291 291 290 290 290 291 291 290 290 290 290 290 289 288 287 285 284 281 278 275 273 271 267 264 263 261 259 257 255 252 251 251 249 249 249 249 249 249 249 248 248 246
313 311 308 304 303 302 300 297 296 296 296 294 290 286 282 278 277 276 276 277 278 279 282 284 286 287 288 288 289 289 289 290 290 290 290 290 290 290 290 290 289 288 288 286 285 283 282 280 277 272 269 267 264 263 262 261 260 258 256 254 252 251 251 252 251 251 251 250 248
315 311 307 302 301 300 298 296 295 295 294 292 287 284 282 280 280 280 280 281 282 284 286 287 286 286 287 288 288 289 290 291 291 291 291 290 290 290 290 289 289 289 289 288 288 286 285 284 280 276 272 271 268 267 266 265 265 264 262 260 257 255 255 254 254 253 253 253 253
312 308 305 303 302 301 299 298 297 295 294 290 287 286 286 286 286 286 287 287 288 289 289 288 287 287 289 290 290 291 292 292 291 291 290 290 289 289 289 290 290 290 289 289 289 288 287 285 282 278 276 274 272 270 269 268 267 267 266 265 263 261 260 260 259 258 258 258 258
305 303 303 303 302 300 299 298 297 295 293 290 288 288 289 290 290 290 290 290 289 289 289 288 289 290 290 291 292 292 292 292 291 291 290 289 289 289 289 290 290 290 289 290 289 289 288 286 283 280 278 276 275 274 273 273 272 270 269 269 268 267 265 264 264 263 262 262 262
301 301 301 301 300 298 297 297 295 294 292 290 289 290 291 292 292 292 291 290 289 289 290 290 290 291 291 291 291 291 292 292 291 290 290 289 289 289 289 289 289 289 289 289 288 288 288 286 282 280 279 279 278 278 278 279 277 276 273 272 271 270 268 267 267 266 266 265 265
301 301 301 300 299 298 297 296 293 291 290 289 290 291 292 292 292 291 291 290 291 291 291 290 291 292 292 292 292 292 292 291 290 290 289 289 288 288 288 288 288 288 288 288 287 287 287 285 282 280 280 280 281 282 283 283 282 280 278 275 274 273 272 270 270 270 270 270 270
301 301 301 299 299 298 296 295 292 291 290 289 290 291 292 292 292 291 292 293 292 291 291 292 294 294 294 294 293 293 291 290 290 290 289 289 288 288 288 287 286 286 286 286 286 286 285 283 282 281 281 281 282 284 284 284 283 282 281 279 278 277 276 275 274 273 274 274 275
302 301 300 299 298 297 295 293 292 291 290 290 291 292 292 292 293 294 295 295 293 293 294 296 297 297 296 294 293 291 291 290 290 290 290 289 288 288 287 286 285 285 285 285 285 285 284 282 283 283 283 284 284 284 285 285 285 284 283 282 281 280 279 278 278 278 278 278 277
303 302 300 299 298 297 295 294 292 291 291 291 292 293 294 294 296 297 297 296 295 296 297 298 297 296 294 292 292 292 292 292 292 291 290 289 288 287 287 285 285 285 285 285 285 285 284 283 284 285 286 286 285 285 285 286 286 285 285 284 283 282 280 280 281 281 281 280 278
302 301 300 300 299 298 296 295 293 292 292 293 294 295 296 297 298 298 298 297 297 298 298 297 295 293 292 293 293 293 293 292 292 291 290 289 288 288 287 286 285 286 286 286 286 286 285 285 286 286 286 287 286 285 285 286 285 285 284 284 283 282 281 281 281 281 281 279 278
302 302 301 301 300 299 297 297 295 295 295 295 297 298 299 299 299 298 298 297 297 297 296 295 294 293 293 293 294 293 293 292 292 291 290 289 289 289 289 288 287 287 287 287 286 286 285 285 286 286 286 286 286 285 285 285 284 283 282 282 281 281 280 280 280 279 278 277 277
304 303 303 303 302 301 300 299 298 297 297 297 298 299 299 297 297 297 297 296 296 295 294 294 294 294 294 293 293 293 293 292 292 291 291 290 291 290 290 290 289 288 287 286 285 284 283 282 283 284 284 284 284 284 283 283 282 281 279 278 278 278 278 278 278 277 276 275 275
305 305 305 305 304 303 302 301 300 298 298 297 297 297 296 295 295 295 295 295 295 294 294 293 294 294 294 293 293 293 293 292 291 291 291 291 291 291 290 289 288 286 284 283 282 281 280 279 279 280 280 281 281 281 280 280 278 277 277 276 276 275 275 276 276 275 275 274 273
307 307 307 306 305 304 303 302 300 298 296 296 295 294 294 293 294 293 293 293 293 293 293 293 293 293 293 292 292 292 291 291 291 290 290 290 290 290 289 288 286 284 282 279 278 278 278 278 278 278 278 278 278 278 277 277 277 277 276 276 276 276 275 276 276 275 275 275 275
308 308 308 307 306 305 303 302 299 297 295 294 294 293 293 293 293 293 293 292 292 292 292 293 293 292 291 291 291 291 290 290 290 290 290 289 289 288 287 286 285 283 280 277 275 275 275 276 277 278 278 278 278 277 277 277 277 277 277 277 277 277 276 275 274 273 272 273 273
309 309 308 308 307 305 303 300 298 297 295 294 294 293 293 292 292 292 291 292 292 292 292 292 292 292 291 291 291 291 291 290 290 290 289 288 288 287 286 285 283 280 277 273 272 272 273 275 277 278 279 279 279 279 279 279 278 278 278 278 278 277 275 273 271 270 269 268 268
309 309 308 307 306 303 301 299 298 296 295 294 293 292 292 292 291 291 291 292 293 292 292 291 291 291 292 292 292 292 291 290 289 289 288 287 286 285 284 283 281 278 275 272 271 270 271 273 275 277 278 279 278 278 277 278 278 277 277 277 276 275 274 273 271 270 268 267 267
310 309 308 307 304 302 300 298 297 295 294 293 292 292 291 291 291 291 292 292 292 292 292 291 291 292 292 292 292 292 291 290 288 287 286 286 285 284 283 283 281 279 277 274 272 271 270 271 272 273 273 274 273 272 271 271 273 274 275 275 274 274 273 272 272 272 271 270 269
310 309 307 305 303 301 299 298 296 294 293 292 291 291 291 292 292 292 293 293 292 292 292 291 292 292 292 292 291 291 290 289 287 286 285 285 285 285 284 284 282 280 278 275 272 270 269 270 268 267 265 266 266 266 266 266 267 269 270 271 271 271 272 272 273 272 272 271 270
309 309 307 305 303 301 299 297 295 293 292 291 291 292 292 292 293 293 293 293 292 292 292 292 292 292 291 290 289 288 288 287 287 286 286 285 286 286 286 286 282 280 277 274 272 272 272 273 272 269 267 265 265 267 268 267 267 268 268 270 271 273 275 276 275 274 273 272 271
310 308 306 304 301 299 297 295 293 292 291 291 291 292 292 293 293 294 294 293 293 293 293 292 292 291 290 289 288 286 285 286 286 287 287 288 288 288 288 287 285 282 278 274 276 278 280 282 282 281 279 278 277 278 278 276 274 273 273 273 276 278 279 279 277 276 274 273 270
310 308 305 303 300 298 295 293 292 291 291 291 291 292 292 293 294 294 294 294 294 294 293 293 292 291 290 288 287 286 286 286 286 287 289 289 289 289 288 287 286 284 280 277 280 282 284 286 287 287 287 286 287 288 287 284 280 277 275 275 276 278 279 280 279 278 277 275 272
308 306 303 301 298 295 293 292 292 291 291 292 292 292 293 294 295 295 294 294 294 293 293 292 291 290 289 287 287 287 287 287 287 288 288 288 289 289 288 286 285 282 280 280 283 286 288 290 291 292 293 292 291 290 288 286 283 280 277 275 275 276 277 278 278 279 279 278 275
306 303 301 298 296 294 293 293 293 293 293 293 294 294 295 295 295 294 294 293 293 293 293 291 291 290 289 288 288 288 288 289 289 288 288 287 287 287 287 287 286 284 283 285 288 290 292 294 295 295 295 294 292 289 286 284 283 281 279 276 276 276 277 278 279 280 280 279 277
301 300 298 296 295 294 294 294 294 294 294 295 295 295 295 295 294 294 294 294 294 294 294 293 292 291 290 289 289 289 289 289 289 288 288 288 287 287 287 288 288 288 289 291 293 294 295 296 296 296 295 294 293 290 285 283 283 282 281 280 280 281 282 282 282 282 281 280 279
298 297 296 295 295 295 295 295 295 295 295 295 295 295 295 294 294 295 295 295 296 295 295 294 293 291 290 289 290 290 290 289 289 289 289 290 290 289 289 290 290 291 292 294 295 296 296 296 296 296 295 295 293 290 286 284 284 284 285 285 284 285 285 284 283 282 281 282 283
296 296 296 296 295 295 295 295 295 295 295 295 295 295 295 295 296 296 297 297 297 296 295 294 292 291 290 290 290 290 291 291 291 291 291 291 291 292 292 292 292 292 293 295 296 296 297 297 297 296 296 295 294 292 287 285 284 284 285 285 284 284 283 282 282 282 283 284 285
295 296 296 296 295 294 294 294 294 295 295 296 296 296 296 296 297 297 297 297 297 296 295 293 292 292 292 292 292 292 292 293 293 293 293 292 292 293 293 293 294 294 294 296 297 297 297 297 297 297 297 297 296 293 290 287 286 284 283 282 281 280 279 279 280 281 282 283 282
295 296 295 294 293 293 293 294 295 296 296 297 297 297 297 297 298 298 297 297 296 295 294 294 293 293 294 294 294 294 293 293 293 293 294 294 294 294 294 294 294 295 296 297 298 298 298 298 298 298 298 298 297 295 292 289 286 283 281 279 277 277 278 279 279 280 280 281 280
292 292 292 292 292 292 293 295 296 297 298 298 297 298 298 298 298 298 297 296 295 294 294 293 293 293 294 294 294 294 295 294 294 294 295 295 295 295 295 295 294 295 297 298 298 298 298 298 299 299 299 300 298 295 291 288 285 282 280 279 279 279 280 279 278 278 278 280 280
287 289 290 291 293 294 296 297 298 299 298 298 298 298 298 298 297 297 297 297 296 295 294 293 293 292 293 293 293 294 294 295 295 295 295 296 296 295 295 295 294 295 297 298 298 299 299 300 300 300 300 300 298 294 290 287 285 283 281 281 282 282 281 279 277 277 278 280 280
286 290 293 294 296 297 298 299 299 299 298 297 298 298 298 297 297 297 297 297 296 295 294 294 294 293 293 294 294 294 294 295 296 296 296 295 296 295 295 296 296 297 298 299 300 300 300 300 300 300 300 299 296 291 288 286 284 282 281 281 282 283 283 281 280 279 280 279 280
291 294 297 298 298 298 298 298 298 297 297 297 297 298 298 298 297 297 297 297 296 295 295 294 294 294 295 295 295 295 295 295 295 295 295 295 295 296 297 297 298 299 300 301 301 301 300 300 300 300 300 298 293 290 287 285 282 281 281 281 282 283 284 283 283 282 281 280 280
298 299 299 298 298 297 297 297 296 296 296 296 297 297 297 297 297 297 297 297 296 296 295 295 295 295 295 296 295 295 294 293 293 294 294 295 296 297 298 299 300 300 301 301 300 300 300 300 299 299 298 296 292 290 287 284 282 281 281 283 283 284 285 284 284 283 282 281 280
301 300 298 297 296 296 296 295 295 295 296 296 296 296 297 297 296 296 296 296 295 295 295 295 295 296 296 296 295 294 293 293 293 293 295 296 298 299 300 300 300 300 300 300 299 299 299 299 298 298 297 295 292 290 287 285 284 283 283 284 284 285 285 284 284 284 283 282 281
299 298 297 296 295 295 295 294 294 294 295 295 296 296 296 296 295 296 296 295 294 295 295 295 296 296 296 296 295 294 294 294 294 295 296 298 299 301 301 301 300 299 299 298 298 298 298 297 297 297 297 295 292 290 288 286 285 284 284 284 284 285 284 284 283 283 282 281 281
299 298 297 295 295 294 294 294 294 294 294 295 295 295 295 296 295 295 296 295 296 296 296 296 296 296 296 296 295 294 295 295 296 297 298 300 301 302 302 301 299 298 297 297 297 297 297 297 297 297 297 295 294 291 289 287 285 285 285 286 286 285 284 283 282 281 280 280 281